This demonstration page uses our WeatherBlox Daily Observations layout. Learn more.

Left ArrowRight Arrow

38.88101, -77.10428

Hourly Observations for January 29, 2015

Temp ( °F °C ) Dew Point ( °F °C ) Humidity (%) Winds ( mph kmh ) Pressure ( in mb ) Visibility ( mi km ) Precip ( " mm )
12:52 am 00:52 Clear 28 -2.2 7 -13.9 41 41 NNW 6 9 30.35 1028 10 16 N/A
1:52 am 01:52 Clear 27 -2.8 8 -13.3 45 45 N 3 6 30.35 1028 10 16 N/A
2:52 am 02:52 Clear 28 -2.2 9 -12.8 44 44 N 5 7 30.34 1027 10 16 N/A
3:52 am 03:52 Clear 27 -2.8 9 -12.8 46 46 N 5 7 30.34 1028 10 16 N/A
4:52 am 04:52 Mostly Clear 27 -2.8 9 -12.8 46 46 N 6 9 30.34 1027 10 16 N/A
5:52 am 05:52 Mostly Clear 27 -2.8 8 -13.3 45 45 N N/A 30.34 1028 10 16 N/A
6:52 am 06:52 Partly Cloudy 28 -2.2 13 -10.6 53 53 N N/A 30.34 1028 10 16 N/A
7:52 am 07:52 Partly Cloudy 29 -1.7 14 -10 54 54 N N/A 30.33 1027 10 16 N/A
8:52 am 08:52 Cloudy 31 -0.6 13 -10.6 47 47 N N/A 30.32 1027 10 16 N/A
9:52 am 09:52 Cloudy 33 0.6 6 -14.4 32 32 N N/A 30.32 1027 10 16 N/A
10:52 am 10:52 Cloudy 34 1.1 12 -11.1 40 40 S 7 11 30.29 1026 10 16 N/A
11:52 am 11:52 Cloudy 36 2.2 12 -11.1 37 37 S 7 11 30.26 1025 10 16 N/A
12:52 pm 12:52 Cloudy 37 2.8 13 -10.6 37 37 S 10 17 30.21 1023 10 16 N/A
1:52 pm 13:52 Cloudy 38 3.3 13 -10.6 36 36 SSE 13 20 30.16 1021 10 16 N/A
2:52 pm 14:52 Cloudy 38 3.3 15 -9.4 39 39 SE 10 17 30.13 1020 10 16 N/A
3:52 pm 15:52 Cloudy with Light Rain 38 3.3 15 -9.4 39 39 SSE 12 19 30.12 1020 10 16 N/A
4:24 pm 16:24 Cloudy with Light Snow 37 3 19 -7 48 48 S 7 11 30.12 1020 7 11 N/A
4:31 pm 16:31 Cloudy with Light Rain 36 2 19 -7 52 52 S 8 13 30.12 1020 7 11 0.01 0.25
4:52 pm 16:52 Cloudy with Light Rain 36 2.2 22 -5.6 57 57 SSE 6 9 30.10 1019 7 11 0.03 0.76
5:29 pm 17:29 Cloudy with Light Rain 36 2 25 -4 65 65 SE 5 7 30.09 1019 10 16 0.02 0.51
5:52 pm 17:52 Cloudy with Light Rain 35 1.7 24 -4.4 64 64 SSE 3 6 30.09 1019 10 16 0.02 0.51
6:52 pm 18:52 Cloudy 36 2.2 25 -3.9 64 64 SSE 6 9 30.07 1018 10 16 N/A
7:52 pm 19:52 Cloudy 36 2.2 25 -3.9 64 64 S 8 13 30.04 1017 10 16 N/A
8:52 pm 20:52 Cloudy 36 2.2 26 -3.3 67 67 S 6 9 30.01 1016 10 16 N/A
9:12 pm 21:12 Cloudy 37 3 25 -4 60 60 S 7 11 30.00 1016 10 16 N/A
9:52 pm 21:52 Cloudy 39 3.9 22 -5.6 50 50 S 13 20 29.97 1015 10 16 N/A
10:52 pm 22:52 Cloudy 39 3.9 22 -5.6 50 50 SSW 9 15 29.95 1014 10 16 N/A
11:52 pm 23:52 Cloudy 39 3.9 23 -5 53 53 S 7 11 29.92 1013 10 16 N/A

Powered by AerisWeather